Torna al catalogo

CZ-6A DEB

AttivoPO
NORAD 54263·DEBRIS·🇨🇳 China

Lanciato Nov 11, 2022 da Taiyuan Satellite Launch Center

Loading…

Prossimi Passaggi (prossime 24 ore)

TLE

AggiornatoSource: Space-Track

Epoca: Sep 14, 2026, 06:11 UTC

1 54263U 22151E   26257.25823357 -.00000027  00000-0  11724-4 0  9997
2 54263  99.1410 176.8130 0305136  70.3614 293.0186 13.56769067190000

Traccia CZ-6A DEB in tempo reale con AllMySat

Download on the App Store